Погода в Словень-Градеце

Словения     46°30′27″N   15°05′11″E
В апреле 2022 года жителям России запретили посещать сайт meteo.paraplan.net по решению Генеральной прокуратуры. Аудитория сайта уменьшилась в 10 раз. Владельцы сайта не видят смысла в поддержке погодного сервера в таких условиях. Сайт будет закрыт в октябре.
темп.,
°C
ветер,
м/с
пор.,
м/с
влажн.,
%
обл.,
%
осадки,
мм/ч
давл.,
гПа
погр.,
м
3 октября, пн
пн323:00+11св2297100 0.0 101878
02:00+10зсз2399100 1.3 1019100
05:00+8сз22975 0.0 102033
08:00+8сз23951 0.0 102168
11:00+14сз13680 0.0 1022711
14:00+17сз15466 0.1 10201725
17:00+16ю01561 0.0 1020160
20:00+9юв119410 0.1 102215
4 октября, вт
вт423:00+10юз019275 0.0 102332
02:00+9ссз118889 0.1 102363
05:00+7сз128966 0.0 102347
08:00+5сз128730 0.0 102474
11:00+13сз11625 0.0 1023596
14:00+16юв01529 0.0 10221037
17:00+15ююв12625 0.0 1022563
20:00+9ююз11896 0.0 102411
5 октября, ср
ср523:00+8з11915 0.0 102610
02:00+7зсз11945 0.0 102614
05:00+6сз229510 0.0 102620
08:00+7зсз129099 0.0 102748
11:00+15зюз0164100 0.0 1025473
14:00+18ю225329 0.0 1024851
17:00+16ю1270100 0.0 1023134
20:00+11юз1190100 0.0 102510
6 октября, чт
чт623:00+10з119064 0.0 102612
02:00+9сз229463 0.0 102729
05:00+8сз229657 0.0 102837
08:00+9сз239117 0.0 102965
11:00+17с115938 0.0 1029330
14:00+20ююв22495 0.0 1028975
17:00+17ююв236841 0.0 1028283
20:00+11ююв119199 0.0 103011
7 октября, пт
пт723:00+11вюв0092100 0.0 103110
02:00+10св0192100 0.0 103010
05:00+9с0093100 0.0 102910
08:00+10ссз1192100 0.0 102923
11:00+16юв126898 0.0 1027624
14:00+18ююв225685 0.0 10251033
17:00+16ююв2271100 0.0 1023305
20:00+11ю1194100 0.0 102412